Das Wetter in  D-61279 Heinzenberg / Taunus





Wetter Minimum- & Maximum-Werte im Oktober 2007

Standort: Heinzenberg / Taunus - Höhe 297 m         8 24' 1" Ost 50 21' 51" Nord
(   3-stündige Aktualisierung    letzte Aktualisierung um 19:04 am 31.10.2007  )


Messgrösse

Minimum

Maximum

Durchschnitt

Temperatur West /
Luftfeuchte West
Anklicken für Monats-Diagramm

-2,2 C

03:34
23.10.2007

52 %

16:03
14.10.2007

22,6 C

16:24
04.10.2007

96 %

10:04
04.10.2007

Temp

8,7 C

Feuchte

84 %

Temperatur Ost /
Luftfeuchte Ost
Anklicken für Monats-Diagramm

-2,2 C

03:34
23.10.2007

--

--
--

21,0 C

16:34
04.10.2007

--

--
--

8,7 C

--

Luftdruck Anklicken für Monats-Diagramm

1010,9 hPa

02:50
30.10.2007

1038,1 hPa

08:47
20.10.2007

1024,3 hPa

Taupunkt

-3,9 C

03:34
23.10.2007

16,9 C

16:19
04.10.2007

6,1 C

Windchill
( gefühlte Temperatur )

-2,2 C

03:34
23.10.2007

22,1 C

16:34
04.10.2007

8,2 C

Windgeschwindigkeit /
Windrichtung
Anklicken für Monats-Diagramm

---

38,9 km/h / W-SW

17:35
17.10.2007

2,6 km/h
W-NW

Helligkeit /
Sonnenschein
Anklicken für Monats-Diagramm
Anklicken für Monats-Diagramm

Sonnenschein:

125:38 Stunden

Max: 9:25 Std am
14.10.2007

78 klux

12:44
05.10.2007

20,8 klux

Solarstrahlung Anklicken für Monats-Diagramm

---

536 W/m

12:44
05.10.2007

156 W/m

Regenmenge
    Oktober 2007
Anklicken für Monats-Diagramm

Insgesamt 13,4 l/m

in 18:07 Stunden
an 7 Tagen

6,4 l/m

11:58
21.10.2007

Gesamtmenge

13,4 l/m

Regen-Tage
    Oktober 2007
Anklicken für Monats-Diagramm

>   0 mm/Tag

>   2 mm/Tag

>   5 mm/Tag

> 10 mm/Tag

> 20 mm/Tag

7 Tage     
3 Tage     
  1 Tag     
0 Tage     
0 Tage     

Eisige Tage Oktober 2007 / 2006

Tmin ≤ -10C     

0 Tage

/

0 Tage

Eistage Oktober 2007 / 2006

Tmax <     0C     

0 Tage

/

0 Tage

Frosttage Oktober 2007 / 2006

Tmin ≤     0C     

3 Tage

/

0 Tage

Kalte Tage Oktober 2007 / 2006

Tmax <   10C     

9 Tage

/

0 Tage

Warme Tage Oktober 2007 / 2006

Tmax ≥   20C     

  1 Tag

/

8 Tage

Sommertage Oktober 2007 / 2006

Tmax ≥   25C     

0 Tage

/

0 Tage

Heisse Tage Oktober 2007 / 2006

Tmax ≥   30C     

0 Tage

/

0 Tage


Monatsdiagramm Oktober 2007

Die Kurven zeigen den Durchschnittswert des jeweiligen Tages an


Wetter-Monatsübersicht Oktober 2007
Datum
  Temperatur
   Luftdruck
   Wind
  Regen
   Luftfeuchte
   Helligkeit

Sonnen-
schein


Temp.

Min.
Temp.

Max.
Temp.


Luftdruck

Min.
Luftdruck

Max.
Luftdruck

-Geschw.
Haupt-Richtg.

Max.
Wind

Menge /
Dauer


Feuchte

Min.
Feuchte

Max.
Feuchte


Helligkeit

Max.
Helligkeit

1.
Oktober
12,5 C7,1 C
07:11
19,1 C
14:36
1024,0 hPa1021,2 hPa
18:46
1026,5 hPa
02:51
0,3 km/h
SO
7,4 km/h
17:06  
0,2 l/m
30 Minuten
87 %73 %
14:11
94 %
09:26
26,7 klux72,9 klux
13:26
3:55 Std 
2.
Oktober
15,1 C12,4 C
07:02
19,0 C
15:12
1020,3 hPa1019,0 hPa
16:02
1021,6 hPa
00:32
0,2 km/h
NW
6,3 km/h
14:57  
---
91 %84 %
15:22
95 %
09:37
12,8 klux52,3 klux
14:57
5 Min 
3.
Oktober
14,7 C12,6 C
06:58
16,8 C
15:38
1019,7 hPa1017,1 hPa
17:58
1020,7 hPa
07:03
1,1 km/h
O-SO
13,9 km/h
12:18  
---
91 %87 %
14:43
94 %
08:38
8,4 klux22,0 klux
12:58
20 Min 
4.
Oktober
16,2 C13,1 C
23:59
22,6 C
16:24
1020,2 hPa1018,5 hPa
03:49
1022,7 hPa
23:59
1,8 km/h
W-NW
12,5 km/h
15:14  
---
87 %69 %
16:29
96 %
10:04
24,3 klux75,3 klux
11:44
3:36 Std 
5.
Oktober
12,2 C7,7 C
23:45
19,0 C
16:09
1023,8 hPa1022,1 hPa
17:19
1025,2 hPa
09:34
1,3 km/h
N-NO
14,4 km/h
16:34  
---
82 %60 %
17:09
95 %
11:14
30,4 klux78,3 klux
12:44
6:40 Std 
6.
Oktober
9,6 C3,3 C
07:55
18,3 C
15:40
1023,9 hPa1022,1 hPa
15:40
1025,6 hPa
10:15
2,0 km/h
SO
24,1 km/h
13:00  
---
82 %62 %
15:20
94 %
11:00
35,7 klux72,4 klux
14:10
8:45 Std 
7.
Oktober
8,8 C2,3 C
08:36
18,3 C
16:11
1023,0 hPa1020,0 hPa
16:21
1025,1 hPa
08:36
0,9 km/h
SO
14,0 km/h
11:36  
---
83 %63 %
16:16
94 %
11:21
34,6 klux72,2 klux
13:56
9:15 Std 
8.
Oktober
8,9 C2,8 C
08:42
18,4 C
15:17
1023,8 hPa1022,6 hPa
00:02
1026,4 hPa
23:53
1,3 km/h
W-NW
11,5 km/h
14:32  
---
84 %65 %
17:17
93 %
11:07
33,6 klux62,1 klux
13:07
8:45 Std 
9.
Oktober
9,7 C5,3 C
07:53
15,9 C
15:53
1025,4 hPa1023,1 hPa
22:54
1027,3 hPa
10:48
0,6 km/h
SO
8,4 km/h
13:38  
---
85 %71 %
15:08
93 %
10:08
18,8 klux51,5 klux
14:38
50 Min 
10.
Oktober
11,4 C6,7 C
23:55
18,7 C
14:44
1023,8 hPa1022,2 hPa
01:34
1027,6 hPa
23:55
1,2 km/h
SO
13,0 km/h
14:19  
---
81 %61 %
15:54
92 %
10:14
26,7 klux62,4 klux
13:54
6:20 Std 
11.
Oktober
8,5 C2,5 C
07:55
17,5 C
15:05
1027,4 hPa1024,5 hPa
17:45
1030,2 hPa
08:30
1,2 km/h
W-NW
10,9 km/h
15:20  
---
83 %62 %
16:35
93 %
10:35
32,4 klux60,8 klux
13:00
7:55 Std 
12.
Oktober
10,0 C5,1 C
02:41
12,8 C
17:26
1023,9 hPa1022,7 hPa
17:26
1025,8 hPa
02:41
5,4 km/h
W
24,1 km/h
14:36  
---
90 %87 %
00:01
92 %
04:11
7,7 klux25,8 klux
13:56
--- 
13.
Oktober
10,7 C5,7 C
23:38
17,5 C
15:37
1026,8 hPa1025,1 hPa
00:02
1028,4 hPa
09:32
1,8 km/h
SO
21,1 km/h
13:22  
---
82 %58 %
16:02
94 %
08:17
27,6 klux70,7 klux
12:17
5:55 Std 
14.
Oktober
7,8 C1,4 C
08:28
16,4 C
15:48
1025,7 hPa1022,3 hPa
17:18
1028,3 hPa
08:28
5,0 km/h
O-SO
27,4 km/h
13:53  
---
77 %52 %
16:03
93 %
10:08
34,6 klux59,1 klux
12:58
9:25 Std 
15.
Oktober
9,1 C1,6 C
07:54
19,6 C
15:39
1019,8 hPa1016,8 hPa
16:24
1022,9 hPa
02:39
2,4 km/h
W-SW
16,9 km/h
17:04  
---
81 %61 %
14:59
91 %
10:49
32,3 klux57,5 klux
13:04
9:10 Std 
16.
Oktober
13,4 C10,1 C
02:24
19,5 C
16:19
1019,8 hPa1018,7 hPa
05:49
1021,9 hPa
10:29
6,4 km/h
W-SW
25,0 km/h
14:14  
---
78 %58 %
15:04
91 %
03:59
30,8 klux57,0 klux
13:04
8:05 Std 
17.
Oktober
12,5 C7,6 C
23:51
16,5 C
13:55
1017,3 hPa1014,3 hPa
17:45
1020,3 hPa
23:51
10,7 km/h
W-SW
38,9 km/h
17:35  
2,1 l/m
1:50 Stunden
83 %73 %
13:55
92 %
21:00
17,8 klux61,4 klux
13:45
2:45 Std 
18.
Oktober
8,0 C4,8 C
23:52
12,6 C
16:06
1026,4 hPa1020,2 hPa
01:36
1032,0 hPa
23:52
11,7 km/h
W-NW
30,7 km/h
14:31  
0,3 l/m
1:05 Stunden
84 %65 %
16:10
92 %
08:16
18,7 klux71,8 klux
12:21
2:25 Std 
19.
Oktober
6,0 C3,5 C
23:57
9,1 C
14:37
1031,9 hPa1030,4 hPa
14:37
1033,2 hPa
23:57
3,5 km/h
NW
20,8 km/h
14:17  
1,2 l/m
55 Minuten
86 %76 %
14:37
90 %
06:47
14,0 klux70,3 klux
12:37
1:01 Std 
20.
Oktober
3,6 C-1,8 C
08:22
11,9 C
15:07
1035,6 hPa1033,3 hPa
00:02
1038,1 hPa
08:47
1,2 km/h
N
12,9 km/h
14:07  
---
81 %56 %
15:52
92 %
10:57
33,5 klux63,1 klux
13:32
8:44 Std 
21.
Oktober
3,7 C2,7 C
03:03
5,2 C
17:33
1029,9 hPa1026,8 hPa
17:33
1034,4 hPa
01:53
0,7 km/h
W
11,7 km/h
11:13  
6,4 l/m
7:05 Stunden
90 %84 %
00:03
94 %
16:38
4,3 klux8,6 klux
13:33
--- 
22.
Oktober
3,2 C-0,6 C
23:59
9,5 C
14:44
1028,5 hPa1026,3 hPa
15:09
1030,6 hPa
08:54
1,0 km/h
N
14,5 km/h
14:39  
---
85 %63 %
16:04
95 %
09:04
28,97 klux57,50 klux
12:39
7:10 Std 
23.
Oktober
2,8 C-2,2 C
03:34
11,6 C
15:24
1025,8 hPa1022,9 hPa
15:24
1027,8 hPa
02:54
2,5 km/h
NO
21,8 km/h
16:59  
---
80 %61 %
15:24
92 %
10:04
28,4 klux58,5 klux
11:19
7:10 Std 
24.
Oktober
4,9 C1,5 C
00:30
7,0 C
14:50
1024,3 hPa1022,8 hPa
05:20
1025,7 hPa
22:56
1,2 km/h
NO
15,5 km/h
09:55  
---
83 %81 %
00:00
87 %
23:06
5,8 klux19,7 klux
14:15
--- 
25.
Oktober
7,0 C5,4 C
00:01
9,0 C
13:36
1023,6 hPa1022,2 hPa
16:36
1024,7 hPa
00:01
0,4 km/h
O
6,7 km/h
13:41  
---
86 %82 %
12:51
89 %
08:36
6,8 klux20,6 klux
12:06
--- 
26.
Oktober
7,3 C6,4 C
02:27
9,4 C
14:22
1022,1 hPa1021,1 hPa
14:22
1024,6 hPa
23:58
0,3 km/h
NO
10,6 km/h
11:37  
---
84 %77 %
14:27
87 %
04:32
7,9 klux18,3 klux
12:02
--- 
27.
Oktober
6,8 C5,9 C
04:38
8,4 C
14:33
1028,5 hPa1024,6 hPa
00:03
1030,7 hPa
11:43
1,4 km/h
W
11,6 km/h
14:33  
---
86 %76 %
16:08
91 %
09:23
5,7 klux17,0 klux
13:58
--- 
28.
Oktober
6,4 C2,9 C
22:24
9,9 C
12:54
1024,9 hPa1020,9 hPa
23:04
1028,8 hPa
02:09
2,1 km/h
SO
19,7 km/h
13:29  
---
84 %72 %
13:29
90 %
07:04
8,3 klux28,3 klux
12:04
--- 
29.
Oktober
6,9 C2,7 C
01:19
9,6 C
14:19
1015,2 hPa1011,8 hPa
20:24
1019,9 hPa
01:19
3,8 km/h
SW
23,6 km/h
11:39  
0,5 l/m
2:02 Stunden
87 %81 %
14:44
92 %
03:10
9,6 klux23,6 klux
13:49
15 Min 
30.
Oktober
7,8 C5,6 C
21:30
11,6 C
14:45
1017,2 hPa1010,9 hPa
02:50
1025,7 hPa
22:46
7,3 km/h
W-NW
23,0 km/h
13:10  
2,7 l/m
4:40 Stunden
89 %74 %
14:45
94 %
05:15
15,6 klux58,6 klux
12:19
2:11 Std 
31.
Oktober
5,4 C1,1 C
23:57
11,0 C
13:26
1030,2 hPa1025,7 hPa
00:01
1033,6 hPa
23:57
1,6 km/h
W-NW
15,3 km/h
13:26  
---
88 %76 %
14:41
94 %
10:16
21,8 klux68,6 klux
12:01
4:56 Std 



Oktober
2007

Temperatur

  

Luftdruck

  

Wind

  

Regen

  

Luftfeuchte

  

Helligkeit

Sonnen-
schein

Min

Max

Min

Max

Max

Max

Min

Max

Max

Max

8,7 C

-2,2 C

03:34 Uhr
23.10.2007

22,6 C

16:24 Uhr
04.10.2007

1024,3 hPa

1010,9 hPa

02:50 Uhr
30.10.2007

1038,1 hPa

08:47 Uhr
20.10.2007

2,6 km/h

W-NW

38,9 km/h

17:35 Uhr
17.10.2007

6,4 l/m

7:05 Stunden
21.10.2007

84 %

52 %

16:03 Uhr
14.10.2007

96 %

10:04 Uhr
04.10.2007

20,8 klux

78,3 klux

12:44 Uhr
05.10.2007

9:25 Std

am
14.10.2007

Gesamt

Gesamt

13,4 l/m

7 Tage
18:07 h

125:38 Std


Wetter-Diagramme Oktober 2007     Heinzenberg / Taunus   
TemperaturLuftfeuchte
SolarstrahlungLuftdruck
HelligkeitSonnenschein
RegenmengeRegendauer
Wind-GeschwindigkeitWind-Richtung